WXM80 ListenWXM80 Stop

You find our weather info also at:

UK Metoffice

WeatherCloud

Weather Underground

Northeastern Weather Network

AWEKAS

Citizen Weather Observer Program (CWOP)

HAMweather, WeatherForYou, PWS Weather


Weather Underground History page Text

Daily Summary for July 7, 2016 Units:  English    Metric   Both
« Previous Day
Next Day »
Daily Weekly Monthly Yearly Custom
  High: Low: Average:
Temperature: 91.5 °F 72.4 °F 79.7 °F
Dew Point: 78.1 °F 69.8 °F 73.1 °F
Humidity: 95 % 57 % 81 %
Wind Speed: 8.4 mph 0.0 mph 1 mph
Wind Gust: 11.5 mph - -
Wind:- - SSE
Pressure: 29.80 in 29.68 in -
Precipitation: 0.22 in    
Historical Graphs
 
 
Tabular Data for July 7, 2016
Time Temperature Dew Point Pressure Wind Wind Speed Wind Gust Humidity Rainfall Rate (Hourly)
00:04 78.9 °F 71.1 °F 29.80 in SSW 1.3 mph 3.5 mph 77 % 0.00 in
00:09 79.0 °F 71.2 °F 29.80 in SSW 1.0 mph 3.0 mph 77 % 0.00 in
00:14 79.0 °F 71.2 °F 29.80 in SW 1.5 mph 3.5 mph 77 % 0.00 in
00:20 78.9 °F 71.1 °F 29.79 in SSW 1.8 mph 4.6 mph 77 % 0.00 in
00:30 78.9 °F 71.5 °F 29.79 in SW 2.4 mph 3.5 mph 78 % 0.00 in
00:35 78.9 °F 71.5 °F 29.79 in SW 2.8 mph 4.6 mph 78 % 0.00 in
00:40 78.9 °F 71.5 °F 29.79 in SSW 2.4 mph 5.0 mph 78 % 0.00 in
00:45 78.9 °F 71.5 °F 29.79 in SSW 3.1 mph 5.8 mph 78 % 0.00 in
00:50 78.9 °F 71.5 °F 29.79 in SSW 2.5 mph 3.5 mph 78 % 0.00 in
00:55 78.9 °F 71.5 °F 29.79 in SW 1.4 mph 3.5 mph 78 % 0.00 in
01:00 78.9 °F 71.5 °F 29.79 in SW 4.1 mph 4.6 mph 78 % 0.00 in
01:05 78.8 °F 71.7 °F 29.78 in SE 1.5 mph 4.0 mph 79 % 0.00 in
01:11 78.8 °F 71.7 °F 29.78 in SSW 3.0 mph 6.0 mph 79 % 0.00 in
01:16 78.8 °F 71.7 °F 29.78 in SSW 0.6 mph 2.3 mph 79 % 0.00 in
01:21 78.8 °F 71.7 °F 29.78 in SSW 2.0 mph 5.0 mph 79 % 0.00 in
01:26 78.8 °F 71.7 °F 29.78 in SSW 1.0 mph 3.0 mph 79 % 0.00 in
01:31 78.8 °F 71.7 °F 29.78 in SW 1.8 mph 3.5 mph 79 % 0.00 in
01:36 78.8 °F 72.1 °F 29.78 in SW 1.0 mph 6.0 mph 80 % 0.00 in
01:41 78.7 °F 72.0 °F 29.78 in Calm   3.0 mph 80 % 0.00 in
01:46 78.7 °F 72.0 °F 29.78 in SW 0.4 mph 2.3 mph 80 % 0.00 in
01:51 78.7 °F 72.0 °F 29.78 in SW 1.0 mph 3.0 mph 80 % 0.00 in
01:56 78.7 °F 72.0 °F 29.78 in SW 2.0 mph 4.0 mph 80 % 0.00 in
02:01 78.6 °F 72.3 °F 29.78 in WSW 0.7 mph 2.3 mph 81 % 0.00 in
02:06 78.6 °F 72.3 °F 29.78 in WSW 3.0 mph 7.0 mph 81 % 0.00 in
02:11 78.5 °F 72.2 °F 29.78 in WSW 1.0 mph 6.0 mph 81 % 0.00 in
02:16 78.5 °F 72.2 °F 29.78 in SW 3.0 mph 10.0 mph 81 % 0.00 in
02:21 78.4 °F 72.1 °F 29.78 in SW 2.0 mph 6.0 mph 81 % 0.00 in
02:26 78.3 °F 72.3 °F 29.78 in SW 1.0 mph 6.0 mph 82 % 0.00 in
02:31 78.2 °F 72.3 °F 29.78 in SW 1.0 mph 4.0 mph 82 % 0.00 in
02:36 78.1 °F 72.1 °F 29.77 in Calm   4.0 mph 82 % 0.00 in
02:41 78.0 °F 72.0 °F 29.77 in Calm   2.0 mph 82 % 0.00 in
02:46 77.8 °F 71.9 °F 29.77 in Calm     82 % 0.00 in
02:51 77.8 °F 72.2 °F 29.77 in Calm     83 % 0.00 in
02:56 77.7 °F 71.7 °F 29.77 in Calm     82 % 0.00 in
03:01 77.5 °F 71.9 °F 29.77 in Calm     83 % 0.00 in
03:06 77.3 °F 71.8 °F 29.77 in Calm     83 % 0.00 in
03:11 77.2 °F 71.6 °F 29.77 in Calm     83 % 0.00 in
03:16 77.0 °F 71.8 °F 29.77 in Calm     84 % 0.00 in
03:21 76.9 °F 71.7 °F 29.77 in Calm     84 % 0.00 in
03:26 76.6 °F 71.4 °F 29.76 in Calm   1.0 mph 84 % 0.00 in
03:31 76.3 °F 71.5 °F 29.76 in Calm     85 % 0.00 in
03:36 76.1 °F 71.3 °F 29.76 in Calm     85 % 0.00 in
03:41 75.9 °F 71.1 °F 29.76 in Calm     85 % 0.00 in
03:46 75.6 °F 70.8 °F 29.76 in Calm     85 % 0.00 in
03:51 75.4 °F 70.6 °F 29.76 in Calm     85 % 0.00 in
03:56 75.2 °F 70.7 °F 29.75 in Calm     86 % 0.00 in
04:01 75.0 °F 70.5 °F 29.75 in Calm     86 % 0.00 in
04:06 74.9 °F 70.4 °F 29.75 in Calm     86 % 0.00 in
04:11 74.7 °F 70.6 °F 29.75 in Calm     87 % 0.00 in
04:16 74.6 °F 70.5 °F 29.75 in Calm     87 % 0.00 in
04:21 74.5 °F 70.4 °F 29.75 in Calm     87 % 0.00 in
04:26 74.4 °F 70.6 °F 29.75 in Calm     88 % 0.00 in
04:31 74.3 °F 70.5 °F 29.75 in Calm     88 % 0.00 in
04:36 74.2 °F 70.4 °F 29.75 in Calm     88 % 0.00 in
04:41 74.2 °F 70.4 °F 29.74 in Calm     88 % 0.00 in
04:46 74.0 °F 70.3 °F 29.74 in Calm     88 % 0.00 in
04:51 73.9 °F 70.2 °F 29.75 in Calm     88 % 0.00 in
04:56 73.9 °F 70.1 °F 29.75 in Calm     88 % 0.00 in
05:01 73.7 °F 69.9 °F 29.75 in Calm     88 % 0.00 in
05:06 73.7 °F 69.9 °F 29.75 in Calm     88 % 0.00 in
05:11 73.6 °F 70.2 °F 29.75 in Calm     89 % 0.00 in
05:16 73.5 °F 70.1 °F 29.75 in Calm     89 % 0.00 in
05:21 73.5 °F 70.0 °F 29.75 in Calm     89 % 0.00 in
05:26 73.4 °F 70.0 °F 29.75 in Calm     89 % 0.00 in
05:31 73.3 °F 70.2 °F 29.75 in Calm     90 % 0.00 in
05:36 73.2 °F 70.1 °F 29.75 in Calm     90 % 0.00 in
05:41 73.1 °F 70.0 °F 29.75 in Calm     90 % 0.00 in
05:46 73.0 °F 69.9 °F 29.75 in Calm     90 % 0.00 in
05:51 73.0 °F 69.9 °F 29.75 in Calm     90 % 0.00 in
05:56 72.9 °F 69.8 °F 29.75 in Calm     90 % 0.00 in
06:01 72.9 °F 69.8 °F 29.75 in Calm     90 % 0.00 in
06:06 72.9 °F 70.1 °F 29.75 in Calm     91 % 0.00 in
06:11 72.9 °F 70.1 °F 29.75 in Calm     91 % 0.00 in
06:16 72.9 °F 70.1 °F 29.76 in Calm     91 % 0.00 in
06:21 72.9 °F 70.4 °F 29.76 in Calm     92 % 0.00 in
06:26 72.9 °F 70.4 °F 29.75 in Calm     92 % 0.00 in
06:31 73.0 °F 70.9 °F 29.76 in Calm     93 % 0.00 in
06:36 73.1 °F 71.0 °F 29.76 in Calm     93 % 0.00 in
06:41 73.3 °F 71.2 °F 29.76 in Calm     93 % 0.00 in
06:46 73.5 °F 71.7 °F 29.76 in Calm     94 % 0.00 in
06:51 73.8 °F 72.0 °F 29.76 in Calm     94 % 0.00 in
06:56 74.2 °F 72.7 °F 29.76 in Calm     95 % 0.00 in
07:02 74.6 °F 73.1 °F 29.76 in Calm     95 % 0.00 in
07:07 75.0 °F 73.5 °F 29.76 in Calm     95 % 0.00 in
07:12 75.5 °F 73.7 °F 29.76 in Calm     94 % 0.00 in
07:17 75.9 °F 74.0 °F 29.76 in Calm     94 % 0.00 in
07:22 76.3 °F 73.8 °F 29.76 in Calm     92 % 0.00 in
07:27 76.7 °F 73.9 °F 29.76 in Calm     91 % 0.00 in
07:32 77.2 °F 74.4 °F 29.76 in Calm     91 % 0.00 in
07:37 77.6 °F 74.4 °F 29.77 in Calm     90 % 0.00 in
07:42 78.0 °F 74.5 °F 29.76 in Calm     89 % 0.00 in
07:48 78.3 °F 74.5 °F 29.77 in Calm     88 % 0.00 in
07:53 78.4 °F 74.2 °F 29.77 in Calm     87 % 0.00 in
07:58 78.6 °F 74.1 °F 29.77 in Calm     86 % 0.00 in
08:03 78.7 °F 74.2 °F 29.76 in Calm     86 % 0.00 in
08:08 78.8 °F 73.9 °F 29.77 in Calm     85 % 0.00 in
08:13 78.8 °F 73.9 °F 29.77 in Calm     85 % 0.00 in
08:18 78.8 °F 73.6 °F 29.76 in NE 0.4 mph 2.0 mph 84 % 0.00 in
08:23 78.7 °F 73.5 °F 29.77 in ENE 0.6 mph 2.3 mph 84 % 0.00 in
08:28 78.7 °F 73.8 °F 29.76 in NE 1.3 mph 2.0 mph 85 % 0.00 in
08:33 78.8 °F 73.9 °F 29.77 in NE 0.5 mph 2.3 mph 85 % 0.00 in
08:39 78.9 °F 74.0 °F 29.77 in NE 1.6 mph 3.5 mph 85 % 0.00 in
08:44 78.9 °F 74.0 °F 29.77 in NNE 0.5 mph 2.3 mph 85 % 0.00 in
08:49 78.9 °F 73.7 °F 29.77 in NNE 1.1 mph 3.5 mph 84 % 0.00 in
08:54 78.9 °F 73.7 °F 29.76 in NNE 1.1 mph 2.3 mph 84 % 0.00 in
08:59 78.9 °F 73.7 °F 29.77 in NNE 0.9 mph 2.3 mph 84 % 0.00 in
09:04 78.7 °F 73.8 °F 29.77 in NNE 1.2 mph 2.3 mph 85 % 0.00 in
09:09 78.6 °F 73.7 °F 29.76 in ENE 1.5 mph 3.0 mph 85 % 0.00 in
09:14 78.6 °F 74.1 °F 29.76 in ENE 1.7 mph 3.5 mph 86 % 0.00 in
09:19 78.6 °F 73.7 °F 29.76 in ENE 1.5 mph 3.5 mph 85 % 0.00 in
09:24 78.6 °F 73.7 °F 29.76 in NE 0.6 mph 2.3 mph 85 % 0.00 in
09:30 78.7 °F 74.2 °F 29.76 in NE 1.2 mph 2.0 mph 86 % 0.00 in
09:35 78.9 °F 74.4 °F 29.75 in North 1.5 mph 2.3 mph 86 % 0.00 in
09:40 79.1 °F 74.5 °F 29.76 in NNE 0.8 mph 3.5 mph 86 % 0.00 in
09:45 79.4 °F 74.8 °F 29.76 in NNE 2.0 mph 3.5 mph 86 % 0.00 in
09:50 79.8 °F 75.2 °F 29.76 in NNE 1.5 mph 3.5 mph 86 % 0.00 in
09:55 80.2 °F 74.9 °F 29.76 in NE 1.3 mph 2.3 mph 84 % 0.00 in
10:00 80.8 °F 75.2 °F 29.76 in NE 1.1 mph 2.3 mph 83 % 0.00 in
10:05 81.4 °F 75.0 °F 29.76 in NE 2.8 mph 3.5 mph 81 % 0.00 in
10:10 81.9 °F 75.5 °F 29.76 in North 2.1 mph 3.5 mph 81 % 0.00 in
10:15 82.6 °F 76.2 °F 29.75 in North 1.9 mph 3.5 mph 81 % 0.00 in
10:21 83.3 °F 76.1 °F 29.75 in NNE 2.2 mph 3.5 mph 79 % 0.00 in
10:26 83.8 °F 75.4 °F 29.76 in NNE 2.0 mph 4.0 mph 76 % 0.00 in
10:31 84.3 °F 76.3 °F 29.76 in NE 2.0 mph 3.0 mph 77 % 0.00 in
10:36 84.7 °F 75.9 °F 29.75 in NE 2.0 mph 4.0 mph 75 % 0.00 in
10:41 85.1 °F 76.6 °F 29.75 in NE 1.0 mph 3.0 mph 76 % 0.00 in
10:46 85.5 °F 76.6 °F 29.75 in NNE 2.0 mph 5.0 mph 75 % 0.00 in
10:51 85.6 °F 76.8 °F 29.75 in NE 3.8 mph 5.0 mph 75 % 0.00 in
10:56 85.6 °F 76.3 °F 29.75 in Calm   4.0 mph 74 % 0.00 in
11:01 85.0 °F 75.4 °F 29.75 in ENE 0.8 mph 2.3 mph 73 % 0.00 in
11:06 84.5 °F 75.3 °F 29.75 in Calm   3.0 mph 74 % 0.00 in
11:11 83.7 °F 75.0 °F 29.75 in Calm   3.0 mph 75 % 0.00 in
11:16 82.9 °F 74.6 °F 29.75 in Calm   2.0 mph 76 % 0.00 in
11:21 82.4 °F 74.5 °F 29.75 in NE 2.1 mph 2.3 mph 77 % 0.00 in
11:26 82.0 °F 74.8 °F 29.75 in Calm   2.0 mph 79 % 0.00 in
11:31 82.0 °F 76.0 °F 29.75 in NE 1.0 mph 5.0 mph 82 % 0.00 in
11:36 82.9 °F 76.5 °F 29.75 in NE 1.5 mph 2.3 mph 81 % 0.00 in
11:41 84.0 °F 77.1 °F 29.75 in NE 2.0 mph 5.0 mph 80 % 0.00 in
11:46 85.0 °F 77.0 °F 29.75 in NE 1.0 mph 5.0 mph 77 % 0.00 in
11:51 85.8 °F 77.4 °F 29.75 in West 1.3 mph 2.3 mph 76 % 0.00 in
11:56 86.6 °F 78.1 °F 29.75 in ESE 2.6 mph 9.2 mph 76 % 0.00 in
12:01 87.2 °F 75.8 °F 29.75 in SSW 1.9 mph 5.8 mph 69 % 0.00 in
12:06 88.1 °F 77.1 °F 29.75 in WSW 1.2 mph 3.5 mph 70 % 0.00 in
12:11 89.0 °F 75.7 °F 29.75 in SW 4.5 mph 8.0 mph 65 % 0.00 in
12:16 89.9 °F 76.6 °F 29.75 in WSW 4.6 mph 9.2 mph 65 % 0.00 in
12:22 90.9 °F 76.6 °F 29.75 in SE 4.9 mph 5.8 mph 63 % 0.00 in
12:27 91.3 °F 75.0 °F 29.75 in South 0.8 mph 3.5 mph 59 % 0.00 in
12:32 91.2 °F 75.4 °F 29.74 in SW 2.2 mph 3.5 mph 60 % 0.00 in
12:37 91.1 °F 76.3 °F 29.74 in SE 2.0 mph 4.6 mph 62 % 0.00 in
12:42 91.2 °F 77.8 °F 29.74 in SSE 0.5 mph 2.3 mph 65 % 0.00 in
12:47 91.2 °F 75.4 °F 29.74 in SSW 2.8 mph 4.6 mph 60 % 0.00 in
12:52 91.1 °F 75.8 °F 29.73 in South 1.2 mph 3.5 mph 61 % 0.00 in
12:57 91.0 °F 75.7 °F 29.73 in South 1.6 mph 2.3 mph 61 % 0.00 in
13:02 90.8 °F 75.5 °F 29.73 in South 2.6 mph 8.1 mph 61 % 0.00 in
13:07 90.8 °F 75.5 °F 29.73 in SSW 2.6 mph 3.5 mph 61 % 0.00 in
13:13 90.8 °F 75.5 °F 29.73 in SE 1.0 mph 3.5 mph 61 % 0.00 in
13:18 90.8 °F 74.5 °F 29.73 in South 4.4 mph 6.9 mph 59 % 0.00 in
13:23 90.7 °F 73.9 °F 29.72 in SSE 3.3 mph 6.9 mph 58 % 0.00 in
13:28 90.6 °F 74.3 °F 29.72 in SSW 2.9 mph 4.6 mph 59 % 0.00 in
13:33 90.5 °F 74.7 °F 29.72 in SSW 0.9 mph 5.0 mph 60 % 0.00 in
13:38 90.1 °F 74.3 °F 29.72 in South 2.1 mph 8.1 mph 60 % 0.00 in
13:43 89.7 °F 74.5 °F 29.71 in SSE 0.9 mph 3.5 mph 61 % 0.00 in
13:48 89.3 °F 74.6 °F 29.71 in South 1.6 mph 4.6 mph 62 % 0.00 in
13:53 89.1 °F 73.9 °F 29.71 in SSE 1.0 mph 2.3 mph 61 % 0.00 in
13:58 88.9 °F 74.7 °F 29.70 in SE 1.3 mph 3.5 mph 63 % 0.00 in
14:04 89.0 °F 74.3 °F 29.70 in SSE 2.7 mph 6.9 mph 62 % 0.00 in
14:09 88.9 °F 73.2 °F 29.70 in SSE 1.9 mph 3.5 mph 60 % 0.00 in
14:14 88.8 °F 73.6 °F 29.69 in SE 1.9 mph 3.5 mph 61 % 0.00 in
14:19 88.9 °F 74.2 °F 29.69 in West 1.8 mph 9.0 mph 62 % 0.00 in
14:24 89.3 °F 74.6 °F 29.69 in SSE 1.1 mph 3.5 mph 62 % 0.00 in
14:29 89.9 °F 75.1 °F 29.69 in SE 2.2 mph 3.5 mph 62 % 0.00 in
14:36 90.5 °F 75.2 °F 29.69 in SSE 2.8 mph 9.2 mph 61 % 0.00 in
14:41 90.8 °F 74.5 °F 29.69 in SE 3.0 mph 4.6 mph 59 % 0.00 in
14:46 91.0 °F 74.2 °F 29.69 in SSW 3.1 mph 5.8 mph 58 % 0.00 in
14:51 91.3 °F 75.5 °F 29.69 in South 4.1 mph 5.0 mph 60 % 0.00 in
14:56 91.5 °F 74.6 °F 29.69 in SSE 3.9 mph 6.9 mph 58 % 0.00 in
15:02 91.5 °F 75.1 °F 29.69 in South 1.2 mph 3.5 mph 59 % 0.00 in
15:07 91.3 °F 73.9 °F 29.69 in South 2.3 mph 4.0 mph 57 % 0.00 in
15:12 91.1 °F 74.8 °F 29.69 in SE 1.1 mph 3.5 mph 59 % 0.00 in
15:17 90.6 °F 73.8 °F 29.69 in SSW 2.5 mph 6.9 mph 58 % 0.00 in
15:27 89.5 °F 74.3 °F 29.69 in SSE 2.5 mph 4.6 mph 61 % 0.00 in
15:32 89.2 °F 74.5 °F 29.69 in SSE 4.4 mph 8.1 mph 62 % 0.00 in
15:37 88.5 °F 74.3 °F 29.70 in SE 2.8 mph 8.1 mph 63 % 0.00 in
15:42 88.2 °F 74.5 °F 29.70 in SW 2.0 mph 3.5 mph 64 % 0.00 in
15:47 87.8 °F 74.1 °F 29.70 in SE 2.2 mph 6.9 mph 64 % 0.00 in
15:53 86.9 °F 74.2 °F 29.69 in South 1.4 mph 6.9 mph 66 % 0.00 in
15:58 86.5 °F 74.7 °F 29.69 in South 0.5 mph 3.5 mph 68 % 0.00 in
16:03 85.9 °F 74.5 °F 29.69 in South 1.8 mph 6.9 mph 69 % 0.00 in
16:08 85.3 °F 74.4 °F 29.69 in South 2.7 mph 6.9 mph 70 % 0.00 in
16:13 84.9 °F 74.4 °F 29.70 in South 2.6 mph 5.8 mph 71 % 0.00 in
16:18 84.7 °F 75.1 °F 29.69 in SSW 2.6 mph 4.6 mph 73 % 0.00 in
16:23 84.6 °F 75.0 °F 29.69 in SE 3.8 mph 6.0 mph 73 % 0.00 in
16:28 84.6 °F 75.4 °F 29.70 in SW 3.1 mph 4.6 mph 74 % 0.00 in
16:33 84.6 °F 75.8 °F 29.69 in SW 3.0 mph 7.0 mph 75 % 0.00 in
16:38 84.7 °F 76.3 °F 29.70 in West 2.5 mph 7.0 mph 76 % 0.00 in
16:44 84.8 °F 75.6 °F 29.69 in SSE 2.4 mph 5.8 mph 74 % 0.00 in
16:49 84.8 °F 75.6 °F 29.69 in South 1.7 mph 8.1 mph 74 % 0.00 in
16:54 84.9 °F 75.7 °F 29.70 in SSW 2.1 mph 9.2 mph 74 % 0.00 in
16:59 85.1 °F 75.5 °F 29.70 in SSW 2.5 mph 5.8 mph 73 % 0.00 in
17:04 85.2 °F 75.6 °F 29.70 in SW 4.5 mph 9.2 mph 73 % 0.00 in
17:09 85.3 °F 75.7 °F 29.70 in East 1.5 mph 8.1 mph 73 % 0.00 in
17:14 85.4 °F 76.6 °F 29.71 in WSW 0.5 mph 1.2 mph 75 % 0.00 in
17:19 85.5 °F 75.4 °F 29.71 in West 1.2 mph 4.6 mph 72 % 0.00 in
17:24 85.5 °F 75.4 °F 29.71 in NNW 2.6 mph 3.5 mph 72 % 0.00 in
17:29 85.0 °F 74.1 °F 29.71 in North 8.4 mph 11.5 mph 70 % 0.00 in
17:35 83.8 °F 73.8 °F 29.72 in ENE 3.5 mph 8.1 mph 72 % 0.00 in
17:40 82.8 °F 73.3 °F 29.71 in ENE 2.4 mph 6.9 mph 73 % 0.00 in
17:45 82.1 °F 73.0 °F 29.71 in East 0.1 mph 3.5 mph 74 % 0.00 in
17:50 81.3 °F 72.6 °F 29.71 in NE 0.3 mph 3.5 mph 75 % 0.00 in
17:55 80.6 °F 72.7 °F 29.71 in NE 0.1 mph 1.2 mph 77 % 0.00 in
18:00 80.2 °F 72.7 °F 29.71 in NE 1.6 mph 4.6 mph 78 % 0.00 in
18:05 79.8 °F 72.7 °F 29.71 in ENE 0.6 mph 4.0 mph 79 % 0.00 in
18:10 79.5 °F 72.4 °F 29.71 in ENE 1.0 mph 3.5 mph 79 % 0.00 in
18:15 79.3 °F 72.2 °F 29.71 in Calm   2.3 mph 79 % 0.00 in
18:20 79.1 °F 72.4 °F 29.71 in Calm     80 % 0.00 in
18:26 78.8 °F 72.5 °F 29.71 in Calm   1.0 mph 81 % 0.00 in
18:30 78.4 °F 72.4 °F 29.70 in Calm     82 % 0.00 in
18:36 78.2 °F 72.2 °F 29.71 in Calm   1.0 mph 82 % 0.00 in
18:40 78.0 °F 72.4 °F 29.72 in Calm   2.0 mph 83 % 0.00 in
18:45 77.8 °F 72.2 °F 29.72 in Calm     83 % 0.00 in
18:51 77.8 °F 72.6 °F 29.71 in Calm     84 % 0.00 in
18:56 77.8 °F 72.6 °F 29.71 in Calm   2.0 mph 84 % 0.00 in
19:00 77.8 °F 72.9 °F 29.72 in Calm     85 % 0.00 in
19:05 77.7 °F 72.5 °F 29.72 in Calm     84 % 0.00 in
19:10 77.7 °F 72.8 °F 29.73 in WSW 6.0 mph 10.0 mph 85 % 0.00 in
19:15 77.5 °F 72.3 °F 29.74 in WNW 3.4 mph 8.1 mph 84 % 0.00 in
19:20 77.3 °F 72.1 °F 29.73 in West 3.0 mph 9.0 mph 84 % 0.00 in
19:25 77.2 °F 72.3 °F 29.73 in West 1.0 mph 4.0 mph 85 % 0.00 in
19:30 77.1 °F 72.6 °F 29.73 in WSW 0.9 mph 4.6 mph 86 % 0.00 in
19:35 76.9 °F 72.7 °F 29.73 in WSW 1.0 mph 3.0 mph 87 % 0.01 in
19:40 76.5 °F 72.7 °F 29.72 in SSW 2.0 mph 4.0 mph 88 % 0.01 in
19:45 76.2 °F 72.4 °F 29.71 in Calm   1.0 mph 88 % 0.00 in
19:51 76.1 °F 72.6 °F 29.71 in Calm   1.0 mph 89 % 0.00 in
19:55 76.0 °F 72.5 °F 29.71 in Calm   3.0 mph 89 % 0.00 in
20:00 75.8 °F 72.7 °F 29.70 in Calm   1.2 mph 90 % 0.21 in
20:05 75.6 °F 72.5 °F 29.70 in Calm   2.0 mph 90 % 0.00 in
20:11 75.5 °F 72.7 °F 29.69 in Calm   2.0 mph 91 % 0.00 in
20:15 75.3 °F 72.5 °F 29.69 in Calm   1.0 mph 91 % 0.00 in
20:20 75.2 °F 72.4 °F 29.69 in Calm   1.0 mph 91 % 0.00 in
20:25 75.1 °F 72.3 °F 29.69 in Calm     91 % 0.00 in
20:30 75.1 °F 72.6 °F 29.68 in Calm   2.0 mph 92 % 0.00 in
20:35 74.9 °F 72.4 °F 29.69 in Calm   1.0 mph 92 % 0.00 in
20:40 74.9 °F 72.4 °F 29.69 in Calm   1.0 mph 92 % 0.00 in
20:45 74.9 °F 72.7 °F 29.69 in Calm     93 % 0.00 in
20:50 74.8 °F 72.3 °F 29.70 in Calm     92 % 0.00 in
20:55 74.8 °F 72.3 °F 29.70 in Calm     92 % 0.00 in
21:01 74.8 °F 72.6 °F 29.71 in Calm     93 % 0.01 in
21:06 74.7 °F 72.5 °F 29.71 in Calm     93 % 0.00 in
21:11 74.7 °F 72.5 °F 29.71 in Calm     93 % 0.00 in
21:16 74.7 °F 72.5 °F 29.71 in Calm     93 % 0.00 in
21:21 74.6 °F 72.4 °F 29.72 in Calm     93 % 0.00 in
21:26 74.6 °F 72.4 °F 29.72 in Calm     93 % 0.00 in
21:31 74.6 °F 72.8 °F 29.72 in Calm     94 % 0.00 in
21:36 74.6 °F 72.7 °F 29.73 in Calm     94 % 0.00 in
21:41 74.5 °F 72.7 °F 29.73 in Calm     94 % 0.00 in
21:46 74.6 °F 72.8 °F 29.73 in Calm     94 % 0.00 in
21:51 74.5 °F 72.6 °F 29.73 in Calm     94 % 0.00 in
21:56 74.3 °F 72.1 °F 29.74 in Calm     93 % 0.00 in
22:01 74.1 °F 71.9 °F 29.74 in Calm     93 % 0.00 in
22:06 74.0 °F 71.8 °F 29.73 in Calm     93 % 0.00 in
22:11 73.9 °F 71.7 °F 29.73 in Calm     93 % 0.00 in
22:16 73.7 °F 71.5 °F 29.73 in Calm     93 % 0.00 in
22:21 73.6 °F 71.5 °F 29.73 in Calm     93 % 0.00 in
22:26 73.5 °F 71.4 °F 29.73 in Calm     93 % 0.00 in
22:31 73.4 °F 71.3 °F 29.73 in Calm     93 % 0.00 in
22:36 73.3 °F 71.2 °F 29.73 in Calm     93 % 0.00 in
22:41 73.2 °F 71.1 °F 29.73 in Calm     93 % 0.00 in
22:46 73.1 °F 71.0 °F 29.73 in Calm     93 % 0.00 in
22:51 73.1 °F 71.0 °F 29.73 in Calm     93 % 0.00 in
22:56 73.0 °F 70.9 °F 29.73 in Calm     93 % 0.00 in
23:01 72.9 °F 70.8 °F 29.73 in Calm     93 % 0.00 in
23:06 72.9 °F 71.1 °F 29.73 in Calm     94 % 0.00 in
23:11 72.9 °F 71.1 °F 29.73 in Calm     94 % 0.00 in
23:16 72.8 °F 71.0 °F 29.73 in Calm     94 % 0.00 in
23:21 72.8 °F 71.0 °F 29.73 in Calm     94 % 0.00 in
23:26 72.8 °F 71.0 °F 29.73 in Calm   1.0 mph 94 % 0.00 in
23:31 72.7 °F 70.9 °F 29.73 in Calm     94 % 0.00 in
23:36 72.7 °F 70.9 °F 29.73 in Calm     94 % 0.00 in
23:41 72.6 °F 70.8 °F 29.73 in Calm     94 % 0.00 in
23:46 72.5 °F 70.7 °F 29.73 in Calm     94 % 0.00 in
23:51 72.5 °F 70.7 °F 29.72 in Calm     94 % 0.00 in
23:56 72.4 °F 70.6 °F 29.72 in Calm     94 % 0.00 in
Crab Meadow Weather
Compliments of Weather Underground - 3 mb

Script developed by  Jim McMurry - jmcmurry@mwt.net Adapted for the template by  Wim van der Kuil - Leuven-Template.eu

Weather Terms: Winter Storm Warning - Hazardous winter weather conditions that pose a threat to life and/or property are occurring, imminent or likely. The generic term, winter storm warning, is used for a combination of two or more of the following winter weather events; heavy snow, freezing rain, sleet and strong winds.